Alexandria, MN

8:23 PM CST on December 03, 2016 (GMT -0600)
Chandler

Weather History for KAXN - October, 2011

Change the Weather History Date:

Saturday, October 1, 2011

  Actual Average Record
Temperature  
Mean Temperature 50 °F -  
Max Temperature 66 °F 64 °F 85 °F (1951)
Min Temperature 37 °F 42 °F 26 °F (1974)
Degree Days  
Heating Degree Days 14    
Moisture  
Dew Point 35 °F    
Average Humidity 58    
Maximum Humidity 87    
Minimum Humidity 34    
Precipitation  
Precipitation 0.00 in - - ()
Sea Level Pressure  
Sea Level Pressure 30.24 in    
Wind  
Wind Speed 12 mph (SSE)    
Max Wind Speed 18 mph    
Max Gust Speed 25 mph    
Visibility 10 miles    
Events      
Averages and records for this station are not official NWS values.
T = Trace of Precipitation, MM = Missing Value Source: NWS Daily Summary

Daily Weather History Graph

Daily Weather History Graph

Search for Another Location

Airport or City:

Trip Planner

Search our weather history database for the weather conditions in past years. The results will help you decide how hot, cold, wet, or windy it might be!

Date:

Astronomy

Oct. 01, 2011 Rise Set
Actual Time 7:19 AM CDT 7:02 PM CDT
Civil Twilight 6:49 AM CDT 7:31 PM CDT
Nautical Twilight 6:15 AM CDT 8:06 PM CDT
Astronomical Twilight 5:40 AM CDT 8:41 PM CDT
Moon 12:45 PM CDT (10/1) 9:41 PM CDT (10/1)
Length of Visible Light 12h 41m
Length of Day
11h 42m
Waxing Crescent, 24% of the Moon is Illuminated
Oct 1
Waxing Crescent
Oct 3
First Quarter
Oct 11
Full
Oct 19
Last Quarter
Oct 26
New

Hourly Weather History & Observations

Time (CDT) Temp. Windchill Dew Point Humidity Pressure Visibility Wind Dir Wind Speed Gust Speed Precip Events Conditions
12:53 AM 42.1 °F 36.6 °F 33.1 °F 70% 30.29 in 10.0 mi SE 9.2 mph - N/A   Clear
1:53 AM 41.0 °F 34.3 °F 34.0 °F 76% 30.30 in 10.0 mi SE 11.5 mph - N/A   Clear
2:53 AM 39.9 °F 32.9 °F 35.1 °F 83% 30.30 in 10.0 mi SE 11.5 mph - N/A   Clear
3:53 AM 39.9 °F 33.4 °F 35.1 °F 83% 30.30 in 10.0 mi SSE 10.4 mph - N/A   Clear
4:53 AM 39.9 °F 32.5 °F 34.0 °F 79% 30.30 in 10.0 mi SE 12.7 mph - N/A   Clear
5:53 AM 39.0 °F 31.8 °F 34.0 °F 82% 30.30 in 10.0 mi SSE 11.5 mph - N/A   Clear
6:53 AM 37.4 °F 29.8 °F 33.8 °F 87% 30.28 in 10.0 mi SSE 11.5 mph - N/A   Clear
7:53 AM 39.0 °F 31.4 °F 34.0 °F 82% 30.31 in 10.0 mi SSE 12.7 mph - N/A   Clear
8:53 AM 43.0 °F 36.4 °F 35.1 °F 74% 30.32 in 10.0 mi South 12.7 mph 20.7 mph N/A   Clear
9:53 AM 48.2 °F - 35.6 °F 62% 30.29 in 10.0 mi North - - N/A   Clear
10:53 AM 52.0 °F - 36.0 °F 54% 30.31 in 10.0 mi SSE 12.7 mph - N/A   Clear
11:53 AM 55.9 °F - 36.0 °F 47% 30.29 in 10.0 mi South 18.4 mph - N/A   Clear
12:53 PM 60.1 °F - 36.0 °F 41% 30.26 in 10.0 mi North - - N/A   Clear
1:53 PM 62.1 °F - 36.0 °F 38% 30.24 in 10.0 mi SSE 18.4 mph 25.3 mph N/A   Clear
2:53 PM 64.0 °F - 36.0 °F 35% 30.21 in 10.0 mi SSE 18.4 mph - N/A   Clear
3:53 PM 64.9 °F - 36.0 °F 34% 30.21 in 10.0 mi SSE 18.4 mph 23.0 mph N/A   Clear
4:53 PM 64.9 °F - 37.0 °F 36% 30.19 in 10.0 mi SSE 13.8 mph 23.0 mph N/A   Clear
5:53 PM 64.0 °F - 37.0 °F 37% 30.17 in 10.0 mi SSE 16.1 mph - N/A   Clear
6:53 PM 60.8 °F - 37.4 °F 42% 30.14 in 10.0 mi SSE 12.7 mph - N/A   Clear
7:53 PM 57.0 °F - 35.1 °F 44% 30.16 in 10.0 mi SSE 11.5 mph - N/A   Clear
8:53 PM 55.9 °F - 35.1 °F 45% 30.16 in 10.0 mi SSE 13.8 mph - N/A   Clear
9:53 PM 54.0 °F - 36.0 °F 51% 30.16 in 10.0 mi South 10.4 mph - N/A   Clear
10:53 PM 51.1 °F - 36.0 °F 56% 30.16 in 10.0 mi SSE 6.9 mph - N/A   Clear
11:53 PM 51.1 °F - 35.1 °F 54% 30.16 in 10.0 mi South 8.1 mph - N/A   Clear